FW5404 Weather Reports


Display with metric or nautical units.
time (UTC)temp
F
wind
direction
speed
MPH
gust
MPH
rain 1hr
in
rain 24hr
in
rain mn
in
humidity
%
barometer
mb
20260508003504 52 87 3.0 4.0 0.00 0.00 0.00 81 1022.3
20260508002504 52 93 3.0 4.0 0.00 0.00 0.00 79 1022.3
20260508002004 52 93 4.0 4.0 0.00 0.00 0.00 79 1022.3
20260508001503 52 94 3.0 4.0 0.00 0.00 0.00 79 1022.3
20260508000006 52 77 3.0 4.0 0.00 0.00 0.00 79 1022.3
20260507235505 52 80 3.0 3.0 0.00 0.00 0.00 79 1022.3
20260507235005 52 85 3.0 3.0 0.00 0.00 0.00 79 1022.3
20260507234505 52 94 3.0 3.0 0.00 0.00 0.00 78 1022.3
20260507234004 52 95 3.0 4.0 0.00 0.00 0.00 78 1022.3
20260507233504 52 91 3.0 4.0 0.00 0.00 0.00 78 1022.3
20260507233005 52 82 3.0 4.0 0.00 0.00 0.00 78 1022.3
20260507232504 52 75 3.0 3.0 0.00 0.00 0.00 77 1022.3
20260507232004 52 68 3.0 3.0 0.00 0.00 0.00 77 1022.3
20260507231004 53 79 3.0 4.0 0.00 0.00 0.00 76 1022.3
20260507230504 53 79 3.0 4.0 0.00 0.00 0.00 76 1022.3
20260507230009 53 86 2.0 3.0 0.00 0.00 0.00 76 1022.3
20260507225504 53 81 2.0 3.0 0.00 0.00 0.00 76 1022.3
20260507225005 53 72 2.0 3.0 0.00 0.00 0.00 76 1022.3
20260507224004 53 87 3.0 4.0 0.00 0.00 0.00 75 1022.3
20260507223504 53 83 3.0 4.0 0.00 0.00 0.00 75 1022.3
20260507223004 53 83 3.0 4.0 0.00 0.00 0.00 74 1022.3
20260507222504 53 86 2.0 3.0 0.00 0.00 0.00 74 1022.3
20260507222005 53 79 3.0 3.0 0.00 0.00 0.00 74 1022.3
20260507221504 53 83 2.0 3.0 0.00 0.00 0.00 74 1022.3
20260507220504 53 80 3.0 4.0 0.00 0.00 0.00 74 1022.3
20260507215504 53 81 3.0 4.0 0.00 0.00 0.00 74 1022.3
20260507215005 53 79 4.0 5.0 0.00 0.00 0.00 74 1022.3
20260507214504 53 76 4.0 5.0 0.00 0.00 0.00 74 1022.3
20260507214006 53 78 3.0 4.0 0.00 0.00 0.00 73 1022.3
20260507213504 53 79 3.0 4.0 0.00 0.00 0.00 73 1022.3
20260507213004 53 74 2.0 3.0 0.00 0.00 0.00 72 1022.3
20260507212504 53 78 2.0 2.0 0.00 0.00 0.00 72 1022.3
20260507212004 53 90 2.0 3.0 0.00 0.00 0.00 72 1022.3
20260507211504 53 90 2.0 3.0 0.00 0.00 0.00 72 1022.3
20260507210006 53 99 3.0 3.0 0.00 0.00 0.00 71 1022.3
20260507205505 53 98 3.0 4.0 0.00 0.00 0.00 71 1022.3
20260507205004 53 95 3.0 4.0 0.00 0.00 0.00 71 1022.3
20260507204505 53 97 3.0 4.0 0.00 0.00 0.00 71 1022.3
20260507204004 54 90 3.0 4.0 0.00 0.00 0.00 70 1022.3
20260507203504 54 80 4.0 4.0 0.00 0.00 0.00 70 1022.3
20260507203005 54 89 3.0 5.0 0.00 0.00 0.00 69 1022.3
20260507202504 54 89 3.0 5.0 0.00 0.00 0.00 69 1022.3
20260507202005 54 89 3.0 5.0 0.00 0.00 0.00 69 1022.3
20260507201005 55 82 4.0 5.0 0.00 0.00 0.00 69 1022.3
20260507200504 55 80 4.0 5.0 0.00 0.00 0.00 69 1022.3
20260507200006 55 84 4.0 5.0 0.00 0.00 0.00 68 1022.3
20260507195504 55 94 3.0 4.0 0.00 0.00 0.00 68 1022.3
20260507194504 56 81 2.0 4.0 0.00 0.00 0.00 67 1021.3
20260507193504 57 78 2.0 3.0 0.00 0.00 0.00 64 1021.3
20260507193004 57 74 2.0 3.0 0.00 0.00 0.00 64 1021.3
20260507192504 57 87 1.0 2.0 0.00 0.00 0.00 63 1021.3
20260507192004 57 77 1.0 2.0 0.00 0.00 0.00 63 1021.3
20260507191504 57 68 1.0 2.0 0.00 0.00 0.00 62 1021.3
20260507191004 58 68 1.0 2.0 0.00 0.00 0.00 62 1021.3
20260507190504 58 72 1.0 2.0 0.00 0.00 0.00 61 1021.3
20260507190006 58 74 1.0 2.0 0.00 0.00 0.00 61 1021.3
20260507185504 58 88 1.0 2.0 0.00 0.00 0.00 61 1021.3
20260507185004 58 248 1.0 1.0 0.00 0.00 0.00 64 1021.3
20260507184505 58 248 1.0 2.0 0.00 0.00 0.00 64 1022.3
20260507184004 58 248 1.0 2.0 0.00 0.00 0.00 64 1022.3
20260507183504 58 248 2.0 2.0 0.00 0.00 0.00 63 1022.3
20260507183004 59 248 2.0 2.0 0.00 0.00 0.00 63 1021.3
20260507182503 59 270 1.0 2.0 0.00 0.00 0.00 62 1021.3
20260507182004 59 270 1.0 2.0 0.00 0.00 0.00 62 1021.3
20260507181506 59 270 1.0 2.0 0.00 0.00 0.00 62 1021.3
20260507181006 59 292 1.0 2.0 0.00 0.00 0.00 62 1021.3
20260507180507 59 292 1.0 2.0 0.00 0.00 0.00 62 1021.3
20260507180008 59 292 1.0 2.0 0.00 0.00 0.00 62 1021.3
20260507175505 59 292 1.0 2.0 0.00 0.00 0.00 62 1021.3
20260507175005 59 292 1.0 2.0 0.00 0.00 0.00 62 1021.3
20260507174505 59 292 1.0 2.0 0.00 0.00 0.00 62 1021.3
20260507174006 59 292 1.0 2.0 0.00 0.00 0.00 62 1021.3
20260507173506 59 0 0.0 0.0 0.00 0.00 0.00 61 1021.3
20260507173006 59 0 0.0 0.0 0.00 0.00 0.00 61 1021.3
20260507172506 59 0 0.0 0.0 0.00 0.00 0.00 62 1021.3
20260507172005 59 112 0.0 1.0 0.00 0.00 0.00 63 1021.3
20260507171505 59 112 1.0 1.0 0.00 0.00 0.00 63 1022.3
20260507170505 59 112 1.0 1.0 0.00 0.00 0.00 62 1022.3
20260507170008 59 112 1.0 2.0 0.00 0.00 0.00 62 1022.3
20260507165506 59 112 1.0 2.0 0.00 0.00 0.00 63 1022.3
20260507164505 59 203 3.0 3.0 0.00 0.00 0.00 62 1022.3
20260507164005 59 203 3.0 3.0 0.00 0.00 0.00 62 1022.3
20260507163006 59 192 2.0 4.0 0.00 0.00 0.00 57 1022.3
20260507161505 60 134 2.0 3.0 0.00 0.00 0.00 52 1021.3
20260507161006 61 112 3.0 4.0 0.00 0.00 0.00 51 1021.3
20260507160506 61 111 3.0 4.0 0.00 0.00 0.00 50 1021.3
20260507160007 62 111 4.0 4.0 0.00 0.00 0.00 50 1021.3
20260507155505 62 105 4.0 5.0 0.00 0.00 0.00 50 1021.3
20260507155006 62 105 4.0 5.0 0.00 0.00 0.00 49 1021.3
20260507154505 62 99 3.0 4.0 0.00 0.00 0.00 50 1021.3
20260507154005 63 114 3.0 4.0 0.00 0.00 0.00 52 1021.3
20260507153505 62 114 3.0 4.0 0.00 0.00 0.00 51 1021.3
20260507153005 62 112 2.0 2.0 0.00 0.00 0.00 51 1022.3
20260507152505 63 151 4.0 5.0 0.00 0.00 0.00 51 1022.3
20260507151505 63 143 3.0 5.0 0.00 0.00 0.00 50 1022.3
20260507151006 63 165 4.0 5.0 0.00 0.00 0.00 51 1022.3
20260507150504 63 197 4.0 5.0 0.00 0.00 0.00 50 1022.3
20260507150007 64 188 4.0 5.0 0.00 0.00 0.00 49 1022.3
20260507145005 64 164 4.0 6.0 0.00 0.00 0.00 49 1022.3
20260507144004 65 131 5.0 8.0 0.00 0.00 0.00 49 1022.3
20260507143505 65 133 6.0 8.0 0.00 0.00 0.00 48 1022.3
20260507142505 65 139 6.0 9.0 0.00 0.00 0.00 48 1022.3
20260507142005 65 146 6.0 9.0 0.00 0.00 0.00 47 1022.3
20260507141505 64 147 6.0 9.0 0.00 0.00 0.00 49 1022.3
20260507140505 64 337 6.0 6.0 0.00 0.00 0.00 51 1022.3
20260507140007 62 337 6.0 6.0 0.00 0.00 0.00 53 1022.3
20260507135505 62 337 6.0 6.0 0.00 0.00 0.00 52 1022.3
20260507135006 62 337 6.0 6.0 0.00 0.00 0.00 52 1022.3
20260507134504 61 337 6.0 6.0 0.00 0.00 0.00 56 1022.3
20260507134005 61 337 6.0 6.0 0.00 0.00 0.00 59 1022.3
20260507133505 61 337 6.0 6.0 0.00 0.00 0.00 58 1022.3
20260507133005 61 297 5.0 6.0 0.00 0.00 0.00 57 1022.3
20260507132505 61 303 4.0 6.0 0.00 0.00 0.00 58 1022.3
20260507132005 61 298 4.0 4.0 0.00 0.00 0.00 59 1022.3
20260507131507 61 298 4.0 4.0 0.00 0.00 0.00 58 1022.3
20260507125505 61 324 1.0 2.0 0.00 0.00 0.00 61 1022.3
20260507125004 61 335 1.0 2.0 0.00 0.00 0.00 61 1022.3
20260507124505 61 353 2.0 3.0 0.00 0.00 0.00 62 1022.3
20260507124005 60 342 2.0 3.0 0.00 0.00 0.00 62 1022.3
20260507123505 60 316 3.0 4.0 0.00 0.00 0.00 63 1022.3
20260507123005 59 334 3.0 5.0 0.00 0.00 0.00 63 1022.3
20260507122505 59 329 4.0 5.0 0.00 0.00 0.00 62 1022.3
20260507122005 59 309 4.0 4.0 0.00 0.00 0.00 64 1022.3
20260507114004 62 322 4.0 4.0 0.00 0.00 0.00 63 1022.3
20260507113505 62 308 5.0 5.0 0.00 0.00 0.00 63 1022.3
20260507113006 60 306 5.0 6.0 0.00 0.00 0.00 65 1022.3
20260507112504 60 303 5.0 6.0 0.00 0.00 0.00 65 1022.3
20260507112005 60 288 5.0 7.0 0.00 0.00 0.00 66 1022.3
20260507111506 60 287 4.0 7.0 0.00 0.00 0.00 66 1022.3
20260507111006 61 291 3.0 7.0 0.00 0.00 0.00 67 1022.3
20260507110505 60 290 3.0 6.0 0.00 0.00 0.00 67 1022.3
20260507110007 61 321 5.0 6.0 0.00 0.00 0.00 65 1022.3
20260507105505 61 329 4.0 6.0 0.00 0.00 0.00 63 1022.3
20260507105005 61 306 4.0 6.0 0.00 0.00 0.00 63 1022.3
20260507104505 62 296 5.0 6.0 0.00 0.00 0.00 63 1022.3
20260507104004 63 288 5.0 5.0 0.00 0.00 0.00 61 1022.3
20260507103505 62 280 4.0 5.0 0.00 0.00 0.00 61 1022.3
20260507103004 63 214 4.0 5.0 0.00 0.00 0.00 59 1022.3
20260507102505 64 250 3.0 5.0 0.00 0.00 0.00 59 1022.3
20260507102006 64 270 3.0 4.0 0.00 0.00 0.00 59 1022.3
20260507101506 63 269 4.0 5.0 0.00 0.00 0.00 62 1022.3
20260507101006 61 289 4.0 5.0 0.00 0.00 0.00 63 1022.3
20260507100504 61 286 3.0 5.0 0.00 0.00 0.00 63 1022.3
20260507100007 61 213 3.0 4.0 0.00 0.00 0.00 62 1022.3
20260507095504 62 176 4.0 8.0 0.00 0.00 0.00 58 1022.3
20260507095005 62 156 4.0 8.0 0.00 0.00 0.00 58 1022.3
20260507094505 62 139 3.0 6.0 0.00 0.00 0.00 61 1022.3
20260507094005 61 136 4.0 6.0 0.00 0.00 0.00 62 1022.3
20260507093504 61 181 4.0 4.0 0.00 0.00 0.00 62 1022.3
20260507093006 61 217 4.0 6.0 0.00 0.00 0.00 63 1022.3
20260507092505 62 238 4.0 6.0 0.00 0.00 0.00 64 1022.3
20260507092005 61 158 2.0 2.0 0.00 0.00 0.00 64 1022.3
20260507091504 62 158 2.0 2.0 0.00 0.00 0.00 63 1022.3
20260507091004 62 158 2.0 2.0 0.00 0.00 0.00 61 1022.3
20260507090505 63 158 2.0 2.0 0.00 0.00 0.00 58 1022.3
20260507090007 63 158 2.0 2.0 0.00 0.00 0.00 58 1022.3
20260507085504 64 172 4.0 5.0 0.00 0.00 0.00 60 1022.3
20260507085004 64 182 4.0 6.0 0.00 0.00 0.00 61 1022.3
20260507084504 63 197 5.0 6.0 0.00 0.00 0.00 61 1022.3
20260507084005 63 184 4.0 6.0 0.00 0.00 0.00 62 1022.3
20260507083504 63 169 3.0 4.0 0.00 0.00 0.00 63 1022.3
20260507083005 63 152 3.0 4.0 0.00 0.00 0.00 62 1022.3
20260507082505 63 143 3.0 4.0 0.00 0.00 0.00 63 1022.3
20260507082005 62 141 3.0 3.0 0.00 0.00 0.00 64 1022.3
20260507081505 62 158 3.0 3.0 0.00 0.00 0.00 65 1022.3
20260507081005 62 124 3.0 3.0 0.00 0.00 0.00 66 1022.3
20260507080505 59 124 3.0 3.0 0.00 0.00 0.00 73 1022.3
20260507080007 59 124 3.0 3.0 0.00 0.00 0.00 73 1022.3
20260507075504 59 124 3.0 3.0 0.00 0.00 0.00 73 1022.3
20260507075004 59 136 3.0 3.0 0.00 0.00 0.00 73 1022.3
20260507074505 59 142 3.0 3.0 0.00 0.00 0.00 72 1022.3
20260507074004 59 121 2.0 4.0 0.00 0.00 0.00 72 1022.3
20260507073504 59 113 2.0 4.0 0.00 0.00 0.00 72 1022.3
20260507073005 60 112 2.0 3.0 0.00 0.00 0.00 72 1022.3
20260507072505 61 107 3.0 4.0 0.00 0.00 0.00 70 1022.3
20260507072004 60 104 3.0 4.0 0.00 0.00 0.00 71 1022.3
20260507071505 58 111 4.0 4.0 0.00 0.00 0.00 73 1022.3
20260507071005 58 111 4.0 4.0 0.00 0.00 0.00 72 1022.3
20260507070504 60 111 4.0 4.0 0.00 0.00 0.00 66 1022.3
20260507070010 60 111 4.0 4.0 0.00 0.00 0.00 66 1022.3
20260507065505 60 111 4.0 4.0 0.00 0.00 0.00 65 1022.3
20260507065004 60 111 4.0 4.0 0.00 0.00 0.00 65 1022.3
20260507064505 60 111 4.0 4.0 0.00 0.00 0.00 66 1022.3
20260507064005 59 112 4.0 4.0 0.00 0.00 0.00 65 1022.3
20260507063504 59 112 3.0 4.0 0.00 0.00 0.00 67 1022.3
20260507063005 59 107 3.0 4.0 0.00 0.00 0.00 69 1022.3
20260507062505 58 105 3.0 4.0 0.00 0.00 0.00 70 1022.3
20260507062004 57 100 4.0 5.0 0.00 0.00 0.00 73 1022.3
20260507061504 56 103 4.0 5.0 0.00 0.00 0.00 73 1022.3
20260507061005 55 103 5.0 7.0 0.00 0.00 0.00 76 1022.3
20260507060505 54 94 5.0 7.0 0.00 0.00 0.00 84 1022.3
20260507060006 48 91 4.0 5.0 0.00 0.00 0.00 99 1022.3
20260507055504 47 97 4.0 5.0 0.00 0.00 0.00 99 1022.3
20260507055005 47 103 5.0 5.0 0.00 0.00 0.00 99 1022.3
20260507054505 47 108 5.0 6.0 0.00 0.00 0.00 99 1022.3
20260507054005 47 106 5.0 6.0 0.00 0.00 0.00 99 1022.3
20260507053504 47 105 5.0 6.0 0.00 0.00 0.00 99 1022.3
20260507053005 47 95 5.0 6.0 0.00 0.00 0.00 99 1021.3
20260507052505 47 91 4.0 6.0 0.00 0.00 0.00 99 1021.3
20260507052004 47 103 4.0 4.0 0.00 0.00 0.00 99 1021.3
20260507051504 47 112 3.0 4.0 0.00 0.00 0.00 99 1022.3
20260507051004 47 102 3.0 4.0 0.00 0.00 0.00 99 1022.3
20260507050504 47 99 3.0 4.0 0.00 0.00 0.00 99 1022.3
20260507050006 47 109 2.0 3.0 0.00 0.00 0.00 99 1022.3
20260507045505 47 110 2.0 3.0 0.00 0.00 0.00 99 1022.3
20260507045004 47 112 2.0 3.0 0.00 0.00 0.00 99 1022.3
20260507044504 47 112 3.0 4.0 0.00 0.00 0.00 99 1021.3
20260507044004 47 112 3.0 4.0 0.00 0.00 0.00 99 1021.3
20260507043504 47 112 4.0 4.0 0.00 0.00 0.00 99 1021.3
20260507043004 47 114 3.0 4.0 0.00 0.00 0.00 99 1021.3
20260507042504 48 116 2.0 4.0 0.00 0.00 0.00 99 1021.3
20260507042004 48 107 3.0 5.0 0.00 0.00 0.00 99 1021.3
20260507041504 48 101 3.0 5.0 0.00 0.00 0.00 99 1021.3
20260507041004 48 106 3.0 4.0 0.00 0.00 0.00 99 1021.3
20260507040504 48 112 4.0 6.0 0.00 0.00 0.00 99 1021.3
20260507040006 48 112 5.0 6.0 0.00 0.00 0.00 99 1021.3
20260507035505 48 112 5.0 6.0 0.00 0.00 0.00 99 1021.3
20260507035005 48 112 4.0 6.0 0.00 0.00 0.00 99 1021.3
20260507034504 48 112 3.0 4.0 0.00 0.00 0.00 99 1021.3
20260507034004 48 99 4.0 4.0 0.00 0.00 0.00 99 1021.3
20260507033504 48 90 4.0 4.0 0.00 0.00 0.00 99 1021.3
20260507033005 48 90 4.0 4.0 0.00 0.00 0.00 99 1021.3
20260507032504 49 89 3.0 4.0 0.00 0.00 0.00 99 1021.3
20260507032004 49 107 2.0 3.0 0.00 0.00 0.00 99 1021.3
20260507031504 49 106 3.0 4.0 0.00 0.00 0.00 99 1021.3
20260507031004 49 104 2.0 4.0 0.00 0.00 0.00 99 1021.3
20260507030504 49 102 1.0 2.0 0.00 0.00 0.00 99 1021.3
20260507030006 49 99 1.0 2.0 0.00 0.00 0.00 99 1021.3
20260507025504 49 104 1.0 2.0 0.00 0.00 0.00 99 1021.3
20260507025005 49 95 1.0 2.0 0.00 0.00 0.00 99 1021.3
20260507024504 49 92 1.0 2.0 0.00 0.00 0.00 99 1021.3
20260507024004 49 94 2.0 3.0 0.00 0.00 0.00 99 1021.3
20260507023505 49 88 2.0 3.0 0.00 0.00 0.00 99 1021.3
20260507023004 49 91 1.0 3.0 0.00 0.00 0.00 99 1021.3
20260507022504 49 98 1.0 2.0 0.00 0.00 0.00 99 1021.3
20260507022004 49 106 2.0 4.0 0.00 0.00 0.00 99 1021.3
20260507021504 49 112 3.0 4.0 0.00 0.00 0.00 99 1022.3
20260507021004 49 100 3.0 3.0 0.00 0.00 0.00 99 1022.3
20260507020505 49 90 3.0 3.0 0.00 0.00 0.00 99 1022.3
20260507020006 49 99 2.0 3.0 0.00 0.00 0.00 100 1021.3
20260507015504 49 115 1.0 2.0 0.00 0.00 0.00 100 1021.3
20260507015004 49 105 1.0 2.0 0.00 0.00 0.00 100 1021.3
20260507014504 49 85 1.0 2.0 0.00 0.00 0.00 100 1021.3
20260507014004 49 103 1.0 2.0 0.00 0.00 0.00 100 1021.3
20260507013504 49 104 1.0 2.0 0.00 0.00 0.00 100 1021.3
20260507013004 49 112 1.0 2.0 0.00 0.00 0.00 100 1021.3
20260507012504 49 112 2.0 2.0 0.00 0.00 0.00 100 1021.3
20260507012004 49 111 2.0 3.0 0.00 0.00 0.00 100 1021.3
20260507010504 49 112 2.0 4.0 0.00 0.00 0.00 97 1021.3
20260507010006 49 112 1.0 1.0 0.00 0.00 0.00 97 1021.3
20260507005504 49 90 3.0 3.0 0.00 0.00 0.00 97 1021.3
20260507005004 49 90 3.0 3.0 0.00 0.00 0.00 97 1021.3
20260507004504 49 90 3.0 3.0 0.00 0.00 0.00 97 1022.3